Погода в Наньнине

Китай     22°49′40″N   108°18′10″E
темп.,
°C
ветер,
м/с
пор.,
м/с
влажн.,
%
обл.,
%
осадки,
мм/ч
давл.,
гПа
погр.,
м
15 мая, сб
сб1523:00+27ююв511810 0.0 1006484
02:00+26ююв358716 0.0 1005217
05:00+26ююв36842 0.0 1005235
08:00+28ююв69741 0.0 1006815
11:00+34ю685025 0.0 10061707
14:00+35ю684698 0.0 10031549
17:00+34ю89483 0.0 10011438
20:00+29ююв713660 0.0 1002429
16 мая, вс
вс1623:00+27ююв510800 0.0 1005350
02:00+26ююв36884 0.0 1004289
05:00+26юв23894 0.0 1004118
08:00+28ююв57730 0.1 1006520
11:00+33ю565561 0.0 10061551
14:00+37ю154288 0.0 10032332
17:00+30в357087 3.4 1002135
20:00+28юв510733 3.8 1004329
17 мая, пн
пн1723:00+26вюв378749 1.4 1007247
02:00+26юв2690100 1.9 1006261
05:00+25ю019494 2.7 100677
08:00+25ссз469082 6.8 1009388
11:00+29ссз447016 0.3 1010780
14:00+31ссз326258 0.4 10081243
17:00+30с336686 0.5 1006741
20:00+26всв358264 0.9 1008278
18 мая, вт
вт1823:00+24всв368865 2.6 1009311
02:00+23св129166 5.6 1009200
05:00+23вюв129025 0.1 1009124
08:00+24всв238126 0.1 1010373
11:00+28в336962 0.0 1010905
14:00+30вюв456463 0.1 10071216
17:00+31вюв456581 2.6 1005995
20:00+27в48849 4.1 1006233
19 мая, ср
ср1923:00+24в599225 0.0 1008274
02:00+24вюв489336 0.0 1007219
05:00+24в379522 0.0 1007210
08:00+25юв478828 0.1 1007296
11:00+31ю686182 0.1 10071541
14:00+32ю6955100 0.2 10041735
17:00+33ю795314 0.0 10021475
20:00+28ююв611655 0.0 1004569